Location: Belvedere Heights
(33.9836°N, 117.3109°W)
Time: 18:12:05
(UTC+00:00)

Atlas Centaur 2 - Pass Details

Date: 09 December 2023
Orbit: 458 x 1281 km, 30.4° (Epoch: 03 March)

Event Time Altitude Azimuth Distance (km) Brightness Sun altitude
Exits shadow 12:56:14 33° 189° (S) 773 2.0 -21.5°
Maximum altitude 12:56:44 35° 169° (S) 741 2.1 -21.4°
Drops below altitude 10° 13:00:03 10° 101° (ESE) 1,609 4.9 -20.7°
Sets 13:02:23 0° 93° (E) 2,533 6.2 -20.3°
